Imperial, PA (15126)

5:57 PM EDT on May 29, 2017 (GMT -0400)
Walden Woods | | Change Station

Elev 1093 ft 40.45 °N, 80.22 °W | Updated 22 seconds ago

Partly Cloudy
Partly Cloudy
81.5 °F
Feels Like 83 °F
N
2.0
Wind Variable Wind from SSW
Gusts 2.5 mph

Today
High -- | Low -- °F
--% Chance of Precip.
Yesterday
High -- | Low -- °F
Precip. -- in
Pressure 29.93 in
Visibility 10.0 miles
Clouds Few 5000 ft
Few 8500 ft
Heat Index 83 °F
Dew Point 65 °F
Humidity 58%
Rainfall 0.00 in
Snow Depth Not available.
5:54 AM 8:43 PM
Waxing Crescent, 23% visible
METAR KPIT 292151Z 22009KT 10SM FEW050 FEW085 26/10 A2993 RMK AO2 SLP135 T02560100 $
Pressure 29.93 in
Visibility 10.0 miles
Clouds Few 5000 ft
Few 8500 ft
Heat Index 83 °F
Dew Point 65 °F
Humidity 58%
Rainfall 0.00 in
Snow Depth Not available.
5:54 AM 8:43 PM
Waxing Crescent, 23% visible
METAR KPIT 292151Z 22009KT 10SM FEW050 FEW085 26/10 A2993 RMK AO2 SLP135 T02560100 $

Get Severe Weather Alerts

Thanks for signing up!

Be on the lookout for a verification email in your inbox.

You'll start receiving the daily forecast at 6 AM.

×

10-Day Weather Forecast

Almanac

Astronomy

May. 29, 2017 Rise Set
Actual Time
Civil Twilight
Nautical Twilight
Astronomical Twilight
Moon
Length of Visible Light
Length of Day
Tomorrow will be .
, % of the Moon is Illuminated

Today's Extremes

State Highs State Lows

Community

WunderPhotos

Category 6

Welcome to Category 6. This is the collective home for Weather Underground's featured writeups by Dr. Jeff Masters (right), Bob Henson (left), Chris Burt, and other regular contributors.

Nearby

Air Quality

  Air Quality AQ Index Pollutant
Not available.

Snow Depth

Station Depth Elevation

Earthquake Activity

City Distance Mag. Time & Date
Minimum magnitude displayed is 2.5.

Coastal Water Temperatures

Place Temperature

Stations

Nearby Weather Stations

Station Location Temp. Windchill Dew Point Humidity Wind Precip. Elev Updated Type
                   

Watches & Warnings

There are currently no watches in effect.